sat.trackr.live / text

‹ back to catalog

STARLINK-3673

NORAD 52093 · 2022-029F

PAYLOAD ACTIVE UNKNOWN

§ Identity

Operator
Country
US
Launch date
2022-03-19
Launch site
AFETR
Launch vehicle
Mass (kg)
RCS (m²)

Purposes: comms

External: N2YO · Heavens-Above · Gunter

§ Orbital elements

Epoch: 2026-09-20T01:39:23.239872Z

Period
93.85 min
Inclination
53.1578°
Eccentricity
0.0001202
Mean motion
15.34389365 rev/d
Perigee alt
461.9 km
Apogee alt
463.6 km
Semi-major
6,840.9 km
B*
2.5532e-5
RAAN
279.5271°
Arg perigee
83.9329°
Mean anomaly
276.1810°
Rev number
25,023

§ Raw data

STARLINK-36731 52093U 22029F   26263.06901898  .00000486  00000+0  25532-4 0  99922 52093  53.1578 279.5271 0001202  83.9329 276.1810 15.34389365250236

JSON: /api/v1/satellites/52093 · /tle

For live sub-satellite position, see the globe view (requires WebGL).

§ Visibility from observer

Set your observer location to see the next 7 days of passes ≥ 10°. The values pass through the URL so the page stays shareable.

No JS? Fill the form by hand. The geolocation button needs JavaScript.